| time (UTC) | temp F | wind direction | speed MPH | gust MPH | rain 1hr in | rain 24hr in | rain mn in | humidity % | barometer mb |
| 20260904052426 | 0 | 137 | 2.0 | 5.0 | 0.00 | 0.00 | 0.00 | 1016.3 | |
| 20260904051922 | 0 | 189 | 2.0 | 8.0 | 0.00 | 0.00 | 0.00 | 1016.4 | |
| 20260904051418 | 0 | 160 | 2.0 | 7.0 | 0.00 | 0.00 | 0.00 | 1016.3 | |
| 20260904050912 | 0 | 141 | 2.0 | 5.0 | 0.00 | 0.00 | 0.00 | 1016.4 | |
| 20260904050409 | 0 | 188 | 2.0 | 7.0 | 0.00 | 0.00 | 0.00 | 1016.3 | |
| 20260904045908 | 0 | 202 | 4.0 | 7.0 | 0.00 | 0.00 | 0.00 | 1016.4 | |
| 20260904045404 | 0 | 173 | 3.0 | 6.0 | 0.00 | 0.00 | 0.00 | 1016.3 | |
| 20260904044903 | 0 | 196 | 2.0 | 6.0 | 0.00 | 0.00 | 0.00 | 1016.2 | |
| 20260904044400 | 0 | 154 | 3.0 | 6.0 | 0.00 | 0.00 | 0.00 | 1016.3 | |
| 20260904043856 | 0 | 206 | 2.0 | 5.0 | 0.00 | 0.00 | 0.00 | 1016.3 | |
| 20260904043352 | 0 | 181 | 2.0 | 4.0 | 0.00 | 0.00 | 0.00 | 1016.4 | |
| 20260904042848 | 0 | 179 | 1.0 | 4.0 | 0.00 | 0.00 | 0.00 | 1016.4 | |
| 20260904042343 | 0 | 184 | 2.0 | 4.0 | 0.00 | 0.00 | 0.00 | 1016.4 | |
| 20260904041838 | 0 | 201 | 3.0 | 4.0 | 0.00 | 0.00 | 0.00 | 1016.3 | |
| 20260904041334 | 0 | 212 | 2.0 | 3.0 | 0.00 | 0.00 | 0.00 | 1016.2 | |
| 20260904040830 | 0 | 166 | 3.0 | 7.0 | 0.00 | 0.00 | 0.00 | 1016.2 | |
| 20260904040325 | 0 | 156 | 6.0 | 10.0 | 0.00 | 0.00 | 0.00 | 1016.3 | |
| 20260904035821 | 0 | 173 | 2.0 | 3.0 | 0.00 | 0.00 | 0.00 | 1016.4 | |
| 20260904035317 | 0 | 182 | 3.0 | 4.0 | 0.00 | 0.00 | 0.00 | 1016.4 | |
| 20260904034815 | 0 | 195 | 2.0 | 3.0 | 0.00 | 0.00 | 0.00 | 1016.0 | |
| 20260904034311 | 0 | 166 | 3.0 | 5.0 | 0.00 | 0.00 | 0.00 | 1016.0 | |
| 20260904033807 | 0 | 219 | 2.0 | 5.0 | 0.00 | 0.00 | 0.00 | 1016.0 | |
| 20260904033304 | 0 | 143 | 3.0 | 8.0 | 0.00 | 0.00 | 0.00 | 1016.0 | |
| 20260904032759 | 0 | 143 | 3.0 | 8.0 | 0.00 | 0.00 | 0.00 | 1016.1 | |
| 20260904032259 | 0 | 200 | 4.0 | 4.0 | 0.00 | 0.00 | 0.00 | 1015.9 | |
| 20260904031753 | 0 | 125 | 5.0 | 7.0 | 0.00 | 0.00 | 0.00 | 1016.0 | |
| 20260904031249 | 0 | 160 | 1.0 | 5.0 | 0.00 | 0.00 | 0.00 | 1015.8 | |
| 20260904030744 | 0 | 186 | 3.0 | 3.0 | 0.00 | 0.00 | 0.00 | 1015.8 | |
| 20260904030239 | 0 | 174 | 5.0 | 7.0 | 0.00 | 0.00 | 0.00 | 1015.8 | |
| 20260904025736 | 0 | 195 | 2.0 | 3.0 | 0.00 | 0.00 | 0.00 | 1015.8 | |
| 20260904025230 | 0 | 190 | 2.0 | 3.0 | 0.00 | 0.00 | 0.00 | 1015.8 | |
| 20260904024720 | 0 | 177 | 3.0 | 5.0 | 0.00 | 0.00 | 0.00 | 1015.8 | |
| 20260904024216 | 0 | 119 | 2.0 | 6.0 | 0.00 | 0.00 | 0.00 | 1015.7 | |
| 20260904023712 | 0 | 155 | 2.0 | 3.0 | 0.00 | 0.00 | 0.00 | 1015.7 | |
| 20260904023207 | 0 | 186 | 5.0 | 9.0 | 0.00 | 0.00 | 0.00 | 1015.5 | |
| 20260904022701 | 0 | 165 | 2.0 | 2.0 | 0.00 | 0.00 | 0.00 | 1015.5 | |
| 20260904022158 | 0 | 135 | 2.0 | 4.0 | 0.00 | 0.00 | 0.00 | 1015.6 | |
| 20260904021654 | 0 | 199 | 2.0 | 4.0 | 0.00 | 0.00 | 0.00 | 1015.0 | |
| 20260904021148 | 0 | 202 | 1.0 | 3.0 | 0.00 | 0.00 | 0.00 | 1015.0 | |
| 20260904020645 | 0 | 168 | 2.0 | 4.0 | 0.00 | 0.00 | 0.00 | 1015.0 | |
| 20260904020139 | 0 | 139 | 2.0 | 5.0 | 0.00 | 0.00 | 0.00 | 1015.0 | |
| 20260904015638 | 0 | 139 | 2.0 | 5.0 | 0.00 | 0.00 | 0.00 | 1015.0 | |
| 20260904015137 | 0 | 171 | 2.0 | 5.0 | 0.00 | 0.00 | 0.00 | 1015.0 | |
| 20260904014636 | 0 | 211 | 2.0 | 7.0 | 0.00 | 0.00 | 0.00 | 1014.9 | |
| 20260904014132 | 0 | 156 | 3.0 | 7.0 | 0.00 | 0.00 | 0.00 | 1014.9 | |
| 20260904013629 | 0 | 174 | 3.0 | 8.0 | 0.00 | 0.00 | 0.00 | 1015.0 | |
| 20260904013124 | 0 | 157 | 4.0 | 8.0 | 0.00 | 0.00 | 0.00 | 1015.0 | |
| 20260904012620 | 0 | 191 | 4.0 | 8.0 | 0.00 | 0.00 | 0.00 | 1015.0 | |
| 20260904012119 | 0 | 203 | 0.0 | 3.0 | 0.00 | 0.00 | 0.00 | 1014.8 | |
| 20260904011618 | 0 | 183 | 2.0 | 3.0 | 0.00 | 0.00 | 0.00 | 1014.8 | |
| 20260904011114 | 0 | 139 | 3.0 | 4.0 | 0.00 | 0.00 | 0.00 | 1014.8 | |
| 20260904010609 | 0 | 152 | 3.0 | 5.0 | 0.00 | 0.00 | 0.00 | 1014.7 | |
| 20260904010106 | 0 | 77 | 0.0 | 7.0 | 0.00 | 0.00 | 0.00 | 1014.7 | |
| 20260904005600 | 0 | 205 | 1.0 | 10.0 | 0.00 | 0.00 | 0.00 | 1014.5 | |
| 20260904005055 | 0 | 132 | 4.0 | 5.0 | 0.00 | 0.00 | 0.00 | 1014.5 | |
| 20260904004551 | 0 | 182 | 3.0 | 9.0 | 0.00 | 0.00 | 0.00 | 1014.8 | |
| 20260904004046 | 0 | 144 | 3.0 | 5.0 | 0.00 | 0.00 | 0.00 | 1014.7 | |
| 20260904003542 | 0 | 173 | 0.0 | 7.0 | 0.00 | 0.00 | 0.00 | 1014.6 | |
| 20260904003038 | 0 | 180 | 3.0 | 9.0 | 0.00 | 0.00 | 0.00 | 1014.6 | |
| 20260904002533 | 0 | 189 | 3.0 | 13.0 | 0.00 | 0.00 | 0.00 | 1014.6 | |
| 20260904002033 | 0 | 185 | 2.0 | 8.0 | 0.00 | 0.00 | 0.00 | 1014.4 | |
| 20260904001529 | 0 | 168 | 2.0 | 8.0 | 0.00 | 0.00 | 0.00 | 1014.6 | |
| 20260904001028 | 0 | 190 | 2.0 | 11.0 | 0.00 | 0.00 | 0.00 | 1014.5 | |
| 20260904000527 | 0 | 194 | 4.0 | 9.0 | 0.00 | 0.00 | 0.00 | 1014.4 | |
| 20260904000024 | 0 | 187 | 3.0 | 6.0 | 0.00 | 0.00 | 0.00 | 1014.3 | |
| 20260903235518 | 0 | 165 | 2.0 | 8.0 | 0.00 | 0.00 | 0.00 | 1014.5 | |
| 20260903235014 | 0 | 186 | 4.0 | 9.0 | 0.00 | 0.00 | 0.00 | 1014.4 | |
| 20260903234509 | 0 | 169 | 3.0 | 9.0 | 0.00 | 0.00 | 0.00 | 1014.6 | |
| 20260903234005 | 0 | 143 | 2.0 | 9.0 | 0.00 | 0.00 | 0.00 | 1014.3 | |
| 20260903233501 | 0 | 186 | 3.0 | 8.0 | 0.00 | 0.00 | 0.00 | 1014.2 | |
| 20260903232955 | 0 | 133 | 6.0 | 10.0 | 0.00 | 0.00 | 0.00 | 1014.1 | |
| 20260903232451 | 0 | 196 | 3.0 | 11.0 | 0.00 | 0.00 | 0.00 | 1014.1 | |
| 20260903231950 | 0 | 160 | 4.0 | 9.0 | 0.00 | 0.00 | 0.00 | 1014.2 | |
| 20260903231445 | 0 | 179 | 3.0 | 13.0 | 0.00 | 0.00 | 0.00 | 1014.2 | |
| 20260903230940 | 0 | 163 | 1.0 | 10.0 | 0.00 | 0.00 | 0.00 | 1013.9 | |
| 20260903230436 | 0 | 117 | 5.0 | 8.0 | 0.00 | 0.00 | 0.00 | 1014.0 | |
| 20260903225932 | 0 | 191 | 4.0 | 12.0 | 0.00 | 0.00 | 0.00 | 1014.0 | |
| 20260903225427 | 0 | 158 | 2.0 | 8.0 | 0.00 | 0.00 | 0.00 | 1013.8 | |
| 20260903224924 | 0 | 156 | 4.0 | 5.0 | 0.00 | 0.00 | 0.00 | 1013.6 | |
| 20260903224419 | 0 | 171 | 3.0 | 6.0 | 0.00 | 0.00 | 0.00 | 1013.6 | |
| 20260903223915 | 0 | 187 | 4.0 | 8.0 | 0.00 | 0.00 | 0.00 | 1013.6 | |
| 20260903223414 | 0 | 128 | 4.0 | 4.0 | 0.00 | 0.00 | 0.00 | 1013.7 | |
| 20260903222913 | 0 | 232 | 4.0 | 6.0 | 0.00 | 0.00 | 0.00 | 1013.6 | |
| 20260903222409 | 0 | 165 | 2.0 | 3.0 | 0.00 | 0.00 | 0.00 | 1013.8 | |
| 20260903221903 | 0 | 180 | 3.0 | 5.0 | 0.00 | 0.00 | 0.00 | 1013.7 | |
| 20260903221401 | 0 | 162 | 4.0 | 9.0 | 0.00 | 0.00 | 0.00 | 1013.7 | |
| 20260903220900 | 0 | 114 | 2.0 | 7.0 | 0.00 | 0.00 | 0.00 | 1013.6 | |
| 20260903220349 | 0 | 128 | 4.0 | 7.0 | 0.00 | 0.00 | 0.00 | 1013.6 | |
| 20260903215847 | 0 | 128 | 4.0 | 7.0 | 0.00 | 0.00 | 0.00 | 1013.6 | |
| 20260903215343 | 0 | 145 | 2.0 | 4.0 | 0.00 | 0.00 | 0.00 | 1013.6 | |
| 20260903214841 | 0 | 145 | 2.0 | 4.0 | 0.00 | 0.00 | 0.00 | 1013.6 | |
| 20260903214332 | 0 | 145 | 2.0 | 4.0 | 0.00 | 0.00 | 0.00 | 1013.6 | |
| 20260903213826 | 0 | 166 | 4.0 | 8.0 | 0.00 | 0.00 | 0.00 | 1013.8 | |
| 20260903213321 | 0 | 180 | 4.0 | 5.0 | 0.00 | 0.00 | 0.00 | 1013.8 | |
| 20260903212817 | 0 | 193 | 4.0 | 5.0 | 0.00 | 0.00 | 0.00 | 1013.8 | |
| 20260903212314 | 0 | 193 | 4.0 | 5.0 | 0.00 | 0.00 | 0.00 | 1013.8 | |
| 20260903211813 | 0 | 193 | 4.0 | 5.0 | 0.00 | 0.00 | 0.00 | 1013.8 | |
| 20260903211309 | 0 | 193 | 4.0 | 5.0 | 0.00 | 0.00 | 0.00 | 1013.8 | |
| 20260903210805 | 0 | 193 | 4.0 | 5.0 | 0.00 | 0.00 | 0.00 | 1013.9 | |
| 20260903210300 | 0 | 193 | 4.0 | 5.0 | 0.00 | 0.00 | 0.00 | 1013.9 | |
| 20260903205800 | 0 | 193 | 2.0 | 4.0 | 0.00 | 0.00 | 0.00 | 1014.0 | |
| 20260903205300 | 0 | 193 | 2.0 | 4.0 | 0.00 | 0.00 | 0.00 | 1014.0 | |
| 20260903204800 | 0 | 193 | 2.0 | 4.0 | 0.00 | 0.00 | 0.00 | 1014.2 | |
| 20260903204256 | 0 | 193 | 2.0 | 4.0 | 0.00 | 0.00 | 0.00 | 1014.0 | |
| 20260903203751 | 0 | 193 | 2.0 | 4.0 | 0.00 | 0.00 | 0.00 | 1014.2 | |
| 20260903203247 | 0 | 216 | 0.0 | 3.0 | 0.00 | 0.00 | 0.00 | 1014.5 | |
| 20260903202745 | 0 | 216 | 0.0 | 3.0 | 0.00 | 0.00 | 0.00 | 1014.6 | |
| 20260903202243 | 0 | 216 | 0.0 | 3.0 | 0.00 | 0.00 | 0.00 | 1014.5 | |
| 20260903201741 | 0 | 216 | 0.0 | 3.0 | 0.00 | 0.00 | 0.00 | 1014.5 | |
| 20260903201237 | 0 | 216 | 0.0 | 3.0 | 0.00 | 0.00 | 0.00 | 1014.8 | |
| 20260903200735 | 0 | 216 | 0.0 | 3.0 | 0.00 | 0.00 | 0.00 | 1014.7 | |
| 20260903200231 | 0 | 216 | 0.0 | 3.0 | 0.00 | 0.00 | 0.00 | 1014.8 | |
| 20260903195726 | 0 | 216 | 0.0 | 3.0 | 0.00 | 0.00 | 0.00 | 1014.8 | |
| 20260903195223 | 0 | 216 | 0.0 | 3.0 | 0.00 | 0.00 | 0.00 | 1014.8 | |
| 20260903194722 | 0 | 209 | 3.0 | 5.0 | 0.00 | 0.00 | 0.00 | 1014.8 | |
| 20260903194218 | 0 | 186 | 2.0 | 3.0 | 0.00 | 0.00 | 0.00 | 1014.8 | |
| 20260903193713 | 0 | 228 | 2.0 | 3.0 | 0.00 | 0.00 | 0.00 | 1015.1 | |
| 20260903193208 | 0 | 166 | 3.0 | 5.0 | 0.00 | 0.00 | 0.00 | 1015.0 | |
| 20260903192705 | 0 | 166 | 3.0 | 5.0 | 0.00 | 0.00 | 0.00 | 1015.1 | |
| 20260903192200 | 0 | 224 | 3.0 | 4.0 | 0.00 | 0.00 | 0.00 | 1015.2 | |
| 20260903191656 | 0 | 230 | 1.0 | 3.0 | 0.00 | 0.00 | 0.00 | 1015.4 | |
| 20260903191156 | 0 | 230 | 1.0 | 5.0 | 0.00 | 0.00 | 0.00 | 1015.4 | |
| 20260903190651 | 0 | 190 | 2.0 | 3.0 | 0.00 | 0.00 | 0.00 | 1015.4 | |
| 20260903190145 | 0 | 190 | 2.0 | 3.0 | 0.00 | 0.00 | 0.00 | 1015.6 | |
| 20260903185640 | 0 | 190 | 2.0 | 3.0 | 0.00 | 0.00 | 0.00 | 1015.6 | |
| 20260903185135 | 0 | 190 | 2.0 | 3.0 | 0.00 | 0.00 | 0.00 | 1015.6 | |
| 20260903184632 | 0 | 190 | 2.0 | 3.0 | 0.00 | 0.00 | 0.00 | 1015.6 | |
| 20260903184128 | 0 | 190 | 2.0 | 3.0 | 0.00 | 0.00 | 0.00 | 1015.7 | |
| 20260903183626 | 0 | 190 | 2.0 | 3.0 | 0.00 | 0.00 | 0.00 | 1015.9 | |
| 20260903183121 | 0 | 220 | 0.0 | 3.0 | 0.00 | 0.00 | 0.00 | 1016.0 | |
| 20260903182621 | 0 | 212 | 1.0 | 2.0 | 0.00 | 0.00 | 0.00 | 1016.1 | |
| 20260903182117 | 0 | 212 | 1.0 | 2.0 | 0.00 | 0.00 | 0.00 | 1016.1 | |
| 20260903181614 | 0 | 181 | 2.0 | 4.0 | 0.00 | 0.00 | 0.00 | 1016.2 | |
| 20260903181109 | 0 | 181 | 2.0 | 4.0 | 0.00 | 0.00 | 0.00 | 1016.1 | |
| 20260903180604 | 0 | 181 | 2.0 | 4.0 | 0.00 | 0.00 | 0.00 | 1016.2 | |
| 20260903180058 | 0 | 180 | 1.0 | 2.0 | 0.00 | 0.00 | 0.00 | 1016.2 | |
| 20260903175552 | 0 | 186 | 2.0 | 3.0 | 0.00 | 0.00 | 0.00 | 1016.6 | |
| 20260903175052 | 0 | 186 | 2.0 | 3.0 | 0.00 | 0.00 | 0.00 | 1016.5 | |
| 20260903174547 | 0 | 176 | 2.0 | 6.0 | 0.00 | 0.00 | 0.00 | 1016.8 | |
| 20260903174041 | 0 | 180 | 3.0 | 3.0 | 0.00 | 0.00 | 0.00 | 1016.7 | |
| 20260903173535 | 0 | 180 | 3.0 | 3.0 | 0.00 | 0.00 | 0.00 | 1016.5 | |
| 20260903173033 | 0 | 180 | 3.0 | 3.0 | 0.00 | 0.00 | 0.00 | 1017.0 | |
| 20260903172527 | 0 | 154 | 2.0 | 5.0 | 0.00 | 0.00 | 0.00 | 1016.7 | |
| 20260903172022 | 0 | 153 | 3.0 | 5.0 | 0.00 | 0.00 | 0.00 | 1017.0 | |
| 20260903171517 | 0 | 153 | 3.0 | 5.0 | 0.00 | 0.00 | 0.00 | 1017.0 | |
| 20260903171013 | 0 | 153 | 3.0 | 5.0 | 0.00 | 0.00 | 0.00 | 1017.0 | |
| 20260903170512 | 0 | 155 | 3.0 | 4.0 | 0.00 | 0.00 | 0.00 | ||
| 20260903170007 | 0 | 155 | 3.0 | 4.0 | 0.00 | 0.00 | 0.00 | ||
| 20260903165505 | 0 | 179 | 0.0 | 3.0 | 0.00 | 0.00 | 0.00 | ||
| 20260903165001 | 0 | 145 | 3.0 | 5.0 | 0.00 | 0.00 | 0.00 | 1016.6 | |
| 20260903164455 | 0 | 162 | 1.0 | 3.0 | 0.00 | 0.00 | 0.00 | 1016.6 | |
| 20260903163955 | 0 | 162 | 1.0 | 3.0 | 0.00 | 0.00 | 0.00 | 1016.6 | |
| 20260903163451 | 0 | 227 | 2.0 | 6.0 | 0.00 | 0.00 | 0.00 | 1016.6 | |
| 20260903162946 | 0 | 237 | 3.0 | 5.0 | 0.00 | 0.00 | 0.00 | 1016.6 | |
| 20260903162437 | 0 | 233 | 2.0 | 3.0 | 0.00 | 0.00 | 0.00 | 1016.6 | |
| 20260903161933 | 0 | 230 | 3.0 | 5.0 | 0.00 | 0.00 | 0.00 | 1016.6 | |
| 20260903161428 | 0 | 236 | 2.0 | 5.0 | 0.00 | 0.00 | 0.00 | 1016.6 | |
| 20260903160924 | 0 | 227 | 3.0 | 4.0 | 0.00 | 0.00 | 0.00 | 1016.6 | |
| 20260903160423 | 0 | 233 | 2.0 | 3.0 | 0.00 | 0.00 | 0.00 | 1016.6 | |
| 20260903155921 | 0 | 205 | 0.0 | 2.0 | 0.00 | 0.00 | 0.00 | 1016.6 | |
| 20260903155417 | 0 | 183 | 2.0 | 3.0 | 0.00 | 0.00 | 0.00 | 1016.6 | |
| 20260903154913 | 0 | 220 | 2.0 | 3.0 | 0.00 | 0.00 | 0.00 | 1016.8 | |
| 20260903154408 | 0 | 207 | 2.0 | 4.0 | 0.00 | 0.00 | 0.00 | 1016.5 | |
| 20260903153903 | 0 | 293 | 1.0 | 2.0 | 0.00 | 0.00 | 0.00 | 1016.6 | |
| 20260903153358 | 0 | 194 | 1.0 | 2.0 | 0.00 | 0.00 | 0.00 | 1016.7 | |
| 20260903152855 | 0 | 211 | 2.0 | 2.0 | 0.00 | 0.00 | 0.00 | 1016.8 | |
| 20260903152350 | 0 | 213 | 2.0 | 4.0 | 0.00 | 0.00 | 0.00 | 1016.8 | |
| 20260903151846 | 0 | 250 | 4.0 | 5.0 | 0.00 | 0.00 | 0.00 | 1016.6 | |
| 20260903151341 | 0 | 209 | 3.0 | 4.0 | 0.00 | 0.00 | 0.00 | 1016.6 | |
| 20260903150840 | 0 | 243 | 2.0 | 3.0 | 0.00 | 0.00 | 0.00 | 1016.7 | |
| 20260903150335 | 0 | 217 | 0.0 | 4.0 | 0.00 | 0.00 | 0.00 | 1016.8 | |
| 20260903145830 | 0 | 232 | 4.0 | 6.0 | 0.00 | 0.00 | 0.00 | 1016.7 | |
| 20260903145326 | 0 | 194 | 1.0 | 4.0 | 0.00 | 0.00 | 0.00 | 1016.8 | |
| 20260903144825 | 0 | 255 | 4.0 | 5.0 | 0.00 | 0.00 | 0.00 | 1016.8 | |
| 20260903144320 | 0 | 228 | 2.0 | 3.0 | 0.00 | 0.00 | 0.00 | 1016.8 | |
| 20260903143815 | 0 | 209 | 3.0 | 3.0 | 0.00 | 0.00 | 0.00 | 1016.7 | |
| 20260903143312 | 0 | 228 | 3.0 | 5.0 | 0.00 | 0.00 | 0.00 | 1016.6 | |
| 20260903142808 | 0 | 213 | 3.0 | 3.0 | 0.00 | 0.00 | 0.00 | 1016.8 | |
| 20260903142306 | 0 | 213 | 3.0 | 3.0 | 0.00 | 0.00 | 0.00 | 1016.6 | |
| 20260903141759 | 0 | 215 | 3.0 | 5.0 | 0.00 | 0.00 | 0.00 | 1016.8 | |
| 20260903141255 | 0 | 229 | 2.0 | 3.0 | 0.00 | 0.00 | 0.00 | 1016.8 | |
| 20260903140754 | 0 | 279 | 3.0 | 3.0 | 0.00 | 0.00 | 0.00 | 1016.6 | |
| 20260903140250 | 0 | 227 | 2.0 | 3.0 | 0.00 | 0.00 | 0.00 | 1016.7 | |
| 20260903135745 | 0 | 219 | 0.0 | 3.0 | 0.00 | 0.00 | 0.00 | 1016.9 | |
| 20260903135240 | 0 | 232 | 2.0 | 3.0 | 0.00 | 0.00 | 0.00 | 1016.7 | |
| 20260903134739 | 0 | 193 | 2.0 | 3.0 | 0.00 | 0.00 | 0.00 | 1016.8 | |
| 20260903134235 | 0 | 239 | 2.0 | 3.0 | 0.00 | 0.00 | 0.00 | 1016.9 | |
| 20260903133732 | 0 | 213 | 2.0 | 2.0 | 0.00 | 0.00 | 0.00 | 1016.9 | |
| 20260903133229 | 0 | 213 | 2.0 | 2.0 | 0.00 | 0.00 | 0.00 | 1016.7 | |
| 20260903132724 | 0 | 195 | 2.0 | 7.0 | 0.00 | 0.00 | 0.00 | 1016.7 | |
| 20260903132223 | 0 | 221 | 1.0 | 1.0 | 0.00 | 0.00 | 0.00 | 1016.9 | |
| 20260903131719 | 0 | 221 | 1.0 | 1.0 | 0.00 | 0.00 | 0.00 | 1016.9 | |
| 20260903131213 | 0 | 221 | 1.0 | 1.0 | 0.00 | 0.00 | 0.00 | 1016.9 | |
| 20260903130708 | 0 | 221 | 1.0 | 3.0 | 0.00 | 0.00 | 0.00 | 1016.9 | |
| 20260903130202 | 0 | 217 | 1.0 | 2.0 | 0.00 | 0.00 | 0.00 | 1016.8 | |
| 20260903125701 | 0 | 145 | 0.0 | 2.0 | 0.00 | 0.00 | 0.00 | 1016.7 | |
| 20260903125156 | 0 | 246 | 0.0 | 1.0 | 0.00 | 0.00 | 0.00 | 1016.7 | |
| 20260903124655 | 0 | 220 | 1.0 | 2.0 | 0.00 | 0.00 | 0.00 | 1016.6 | |
| 20260903124150 | 0 | 231 | 0.0 | 2.0 | 0.00 | 0.00 | 0.00 | 1016.3 | |
| 20260903123649 | 0 | 178 | 2.0 | 2.0 | 0.00 | 0.00 | 0.00 | 1016.3 | |
| 20260903123148 | 0 | 178 | 2.0 | 2.0 | 0.00 | 0.00 | 0.00 | 1016.3 | |
| 20260903122648 | 0 | 234 | 1.0 | 3.0 | 0.00 | 0.00 | 0.00 | 1016.3 | |
| 20260903122143 | 0 | 205 | 2.0 | 3.0 | 0.00 | 0.00 | 0.00 | 1016.3 | |
| 20260903121641 | 0 | 198 | 0.0 | 3.0 | 0.00 | 0.00 | 0.00 | 1016.4 | |
| 20260903121138 | 0 | 195 | 3.0 | 5.0 | 0.00 | 0.00 | 0.00 | 1016.4 | |
| 20260903120636 | 0 | 184 | 0.0 | 2.0 | 0.00 | 0.00 | 0.00 | 1016.4 | |
| 20260903120131 | 0 | 230 | 0.0 | 1.0 | 0.00 | 0.00 | 0.00 | 1016.4 | |
| 20260903115629 | 0 | 217 | 1.0 | 4.0 | 0.00 | 0.00 | 0.00 | 1016.3 | |
| 20260903115125 | 0 | 242 | 0.0 | 2.0 | 0.00 | 0.00 | 0.00 | 1016.3 | |
| 20260903114620 | 0 | 152 | 5.0 | 8.0 | 0.00 | 0.00 | 0.00 | 1016.3 | |
| 20260903114115 | 0 | 202 | 1.0 | 6.0 | 0.00 | 0.00 | 0.00 | 1016.3 | |
| 20260903113610 | 0 | 204 | 2.0 | 5.0 | 0.00 | 0.00 | 0.00 | 1016.3 | |
| 20260903113107 | 0 | 200 | 1.0 | 7.0 | 0.00 | 0.00 | 0.00 | 1016.4 | |
| 20260903112603 | 0 | 235 | 0.0 | 2.0 | 0.00 | 0.00 | 0.00 | 1016.4 | |
| 20260903112103 | 0 | 208 | 1.0 | 3.0 | 0.00 | 0.00 | 0.00 | 1016.4 | |
| 20260903111602 | 0 | 212 | 0.0 | 2.0 | 0.00 | 0.00 | 0.00 | 1016.4 | |
| 20260903111057 | 0 | 210 | 1.0 | 3.0 | 0.00 | 0.00 | 0.00 | 1016.4 | |
| 20260903110553 | 0 | 224 | 0.0 | 3.0 | 0.00 | 0.00 | 0.00 | 1016.4 | |
| 20260903110048 | 0 | 195 | 0.0 | 3.0 | 0.00 | 0.00 | 0.00 | 1016.0 | |
| 20260903105542 | 0 | 225 | 2.0 | 5.0 | 0.00 | 0.00 | 0.00 | 1016.0 | |
| 20260903105032 | 0 | 223 | 2.0 | 5.0 | 0.00 | 0.00 | 0.00 | 1016.0 | |
| 20260903104532 | 0 | 188 | 1.0 | 2.0 | 0.00 | 0.00 | 0.00 | 1015.9 | |
| 20260903104028 | 0 | 123 | 1.0 | 3.0 | 0.00 | 0.00 | 0.00 | 1015.9 | |
| 20260903103523 | 0 | 219 | 2.0 | 3.0 | 0.00 | 0.00 | 0.00 | 1015.9 | |
| 20260903103020 | 0 | 229 | 2.0 | 3.0 | 0.00 | 0.00 | 0.00 | 1015.9 | |
| 20260903102515 | 0 | 210 | 1.0 | 3.0 | 0.00 | 0.00 | 0.00 | 1015.9 | |
| 20260903102014 | 0 | 204 | 1.0 | 3.0 | 0.00 | 0.00 | 0.00 | 1015.9 | |
| 20260903101508 | 0 | 171 | 1.0 | 3.0 | 0.00 | 0.00 | 0.00 | 1015.9 | |
| 20260903101004 | 0 | 197 | 2.0 | 4.0 | 0.00 | 0.00 | 0.00 | 1015.9 | |
| 20260903100458 | 0 | 213 | 0.0 | 4.0 | 0.00 | 0.00 | 0.00 | 1015.9 | |
| 20260903095956 | 0 | 248 | 1.0 | 4.0 | 0.00 | 0.00 | 0.00 | 1015.9 | |
| 20260903095450 | 0 | 211 | 2.0 | 3.0 | 0.00 | 0.00 | 0.00 | 1015.9 | |
| 20260903094945 | 0 | 199 | 2.0 | 3.0 | 0.00 | 0.00 | 0.00 | 1015.9 | |
| 20260903094445 | 0 | 215 | 2.0 | 2.0 | 0.00 | 0.00 | 0.00 | 1015.9 | |
| 20260903093941 | 0 | 224 | 2.0 | 3.0 | 0.00 | 0.00 | 0.00 | 1015.9 | |
| 20260903093436 | 0 | 205 | 2.0 | 3.0 | 0.00 | 0.00 | 0.00 | 1015.9 | |
| 20260903092931 | 0 | 255 | 1.0 | 4.0 | 0.00 | 0.00 | 0.00 | 1016.1 | |
| 20260903092426 | 0 | 210 | 1.0 | 3.0 | 0.00 | 0.00 | 0.00 | 1016.3 | |
| 20260903091924 | 0 | 220 | 2.0 | 10.0 | 0.00 | 0.00 | 0.00 | 1016.3 | |
| 20260903091423 | 0 | 162 | 1.0 | 3.0 | 0.00 | 0.00 | 0.00 | 1016.3 | |
| 20260903090918 | 0 | 213 | 2.0 | 4.0 | 0.00 | 0.00 | 0.00 | 1016.2 | |
| 20260903090414 | 0 | 232 | 3.0 | 4.0 | 0.00 | 0.00 | 0.00 | 1016.2 | |
| 20260903085912 | 0 | 219 | 0.0 | 3.0 | 0.00 | 0.00 | 0.00 | 1016.2 | |
| 20260903085411 | 0 | 72 | 0.0 | 4.0 | 0.00 | 0.00 | 0.00 | 1016.2 | |
| 20260903084911 | 0 | 201 | 3.0 | 5.0 | 0.00 | 0.00 | 0.00 | 1016.2 | |
| 20260903084409 | 0 | 216 | 3.0 | 6.0 | 0.00 | 0.00 | 0.00 | 1016.2 | |
| 20260903083905 | 0 | 226 | 0.0 | 3.0 | 0.00 | 0.00 | 0.00 | 1016.2 | |
| 20260903083401 | 0 | 198 | 1.0 | 2.0 | 0.00 | 0.00 | 0.00 | ||
| 20260903082859 | 0 | 128 | 1.0 | 5.0 | 0.00 | 0.00 | 0.00 | ||
| 20260903082354 | 0 | 220 | 3.0 | 3.0 | 0.00 | 0.00 | 0.00 | ||
| 20260903081850 | 0 | 132 | 4.0 | 5.0 | 0.00 | 0.00 | 0.00 | ||
| 20260903081345 | 0 | 190 | 1.0 | 3.0 | 0.00 | 0.00 | 0.00 | ||
| 20260903080841 | 0 | 338 | 0.0 | 2.0 | 0.00 | 0.00 | 0.00 | ||
| 20260903080338 | 0 | 194 | 2.0 | 3.0 | 0.00 | 0.00 | 0.00 | 1016.3 | |
| 20260903075838 | 0 | 230 | 2.0 | 3.0 | 0.00 | 0.00 | 0.00 | 1016.3 | |
| 20260903075333 | 0 | 215 | 2.0 | 3.0 | 0.00 | 0.00 | 0.00 | 1016.3 | |
| 20260903074833 | 0 | 207 | 2.0 | 4.0 | 0.00 | 0.00 | 0.00 | 1016.3 | |
| 20260903074327 | 0 | 220 | 0.0 | 4.0 | 0.00 | 0.00 | 0.00 | 1016.3 | |
| 20260903073823 | 0 | 199 | 3.0 | 5.0 | 0.00 | 0.00 | 0.00 | 1016.3 | |
| 20260903073318 | 0 | 150 | 2.0 | 3.0 | 0.00 | 0.00 | 0.00 | 1016.3 | |
| 20260903072814 | 0 | 224 | 0.0 | 2.0 | 0.00 | 0.00 | 0.00 | 1016.3 | |
| 20260903072310 | 0 | 205 | 2.0 | 3.0 | 0.00 | 0.00 | 0.00 | 1016.3 | |
| 20260903071806 | 0 | 235 | 2.0 | 3.0 | 0.00 | 0.00 | 0.00 | 1016.3 | |
| 20260903071301 | 0 | 195 | 3.0 | 7.0 | 0.00 | 0.00 | 0.00 | 1016.3 | |
| 20260903070756 | 0 | 215 | 3.0 | 6.0 | 0.00 | 0.00 | 0.00 | 1016.3 | |
| 20260903070252 | 0 | 111 | 2.0 | 3.0 | 0.00 | 0.00 | 0.00 | ||
| 20260903065747 | 0 | 154 | 2.0 | 2.0 | 0.00 | 0.00 | 0.00 | ||
| 20260903065246 | 0 | 192 | 2.0 | 3.0 | 0.00 | 0.00 | 0.00 | ||
| 20260903064745 | 0 | 230 | 0.0 | 2.0 | 0.00 | 0.00 | 0.00 | ||
| 20260903064240 | 0 | 163 | 1.0 | 3.0 | 0.00 | 0.00 | 0.00 | ||
| 20260903063737 | 0 | 153 | 1.0 | 5.0 | 0.00 | 0.00 | 0.00 | ||
| 20260903063231 | 0 | 153 | 1.0 | 5.0 | 0.00 | 0.00 | 0.00 | ||
| 20260903062728 | 0 | 193 | 0.0 | 1.0 | 0.00 | 0.00 | 0.00 | ||
| 20260903062227 | 0 | 134 | 4.0 | 5.0 | 0.00 | 0.00 | 0.00 | ||
| 20260903061724 | 0 | 134 | 4.0 | 5.0 | 0.00 | 0.00 | 0.00 | ||
| 20260903061222 | 0 | 219 | 1.0 | 1.0 | 0.00 | 0.00 | 0.00 | ||
| 20260903060718 | 0 | 197 | 0.0 | 2.0 | 0.00 | 0.00 | 0.00 | ||
| 20260903060218 | 0 | 110 | 5.0 | 6.0 | 0.00 | 0.00 | 0.00 | ||
| 20260903055715 | 0 | 110 | 5.0 | 6.0 | 0.00 | 0.00 | 0.00 | ||
| 20260903055214 | 0 | 110 | 5.0 | 6.0 | 0.00 | 0.00 | 0.00 | ||
| 20260903054709 | 0 | 110 | 5.0 | 6.0 | 0.00 | 0.00 | 0.00 | ||
| 20260903054204 | 0 | 110 | 5.0 | 6.0 | 0.00 | 0.00 | 0.00 | ||
| 20260903053701 | 0 | 110 | 5.0 | 6.0 | 0.00 | 0.00 | 0.00 | ||
| 20260903053155 | 0 | 184 | 2.0 | 2.0 | 0.00 | 0.00 | 0.00 |